Location: Krasnoyarskiy Pitomnik
(51.1333°N, 71.6167°E)
Time: 21:51:34
(UTC+00:00)

A-11 Canister half - Pass Details

Date: 21 April 2024
Orbit: 1525 x 1683 km, 47.3° (Epoch: 19 May)

Event Time Altitude Azimuth Distance (km) Brightness Sun altitude
Rises 00:15:23 0° 210° (SSW) 4,850 11.2 0.6°
Reaches altitude 10° 00:18:48 10° 202° (SSW) 3,886 10.8 1.1°
Maximum altitude 00:27:32 36° 141° (SE) 2,436 10.4 2.4°
Drops below altitude 10° 00:36:22 10° 80° (E) 3,951 13.9 3.8°
Sets 00:39:52 0° 72° (ENE) 4,941 14.7 4.3°
